Location: Caltech
(34.1382°N, 118.1253°W)
Time: 20:24:47
(UTC-07:00)

Iridium 91 - Visible Passes

Search period start: 05 May 2015 00:00
Search period end: 15 May 2015 00:00
Orbit: 776 x 779 km, 86.4° (Epoch: 05 May)

Date Brightness Start Highest point End Pass type
(mag) Time Alt. Az. Time Alt. Az. Time Alt. Az.
05 May 8.0 01:41:29 14° ENE 01:41:29 14° ENE 01:43:15 10° NE visible
05 May 6.4 03:21:58 38° NW 03:21:58 38° NW 03:25:35 10° N visible
06 May 6.4 02:48:37 46° N 02:48:37 46° N 02:52:14 10° N visible
07 May 7.0 02:15:15 33° NE 02:15:15 33° NE 02:18:29 10° NNE visible
07 May 7.4 03:55:43 16° WNW 03:55:43 16° WNW 03:57:49 10° NW visible
08 May 7.7 01:41:52 20° ENE 01:41:52 20° ENE 01:44:15 10° NNE visible
08 May 6.9 03:22:21 27° NW 03:22:21 27° NW 03:25:23 10° NNW visible
09 May 8.3 01:08:29 10° ENE 01:08:29 10° ENE 01:08:40 10° ENE visible
09 May 6.6 02:48:57 39° NNW 02:48:57 39° NNW 02:52:17 10° N visible
10 May 6.8 02:15:34 37° NNE 02:15:34 37° NNE 02:18:46 10° N visible
10 May 7.8 03:56:02 10° WNW 03:56:02 10° WNW 03:56:16 10° WNW visible
11 May 7.4 01:42:10 25° NE 01:42:10 25° NE 01:44:51 10° NNE visible
11 May 7.3 03:22:37 19° NW 03:22:37 19° NW 03:24:57 10° NNW visible
12 May 8.0 01:08:45 15° ENE 01:08:45 15° ENE 01:10:17 10° NE visible
12 May 6.9 02:49:13 30° NW 02:49:13 30° NW 02:52:11 10° NNW visible
13 May 6.8 02:15:48 37° N 02:15:48 37° N 02:18:54 10° N visible
14 May 7.1 01:42:22 31° NNE 01:42:22 31° NNE 01:45:14 10° NNE visible
14 May 7.7 03:22:50 13° WNW 03:22:50 13° WNW 03:24:05 10° NW visible
